Weather History for KHRT - February, 2012

Change the Weather History Date:

Tuesday, February 7, 2012

  Actual Average Record
Temperature  
Mean Temperature 60 °F -  
Max Temperature 70 °F 60 °F 75 °F (1999)
Min Temperature 51 °F 43 °F 18 °F (2008)
Degree Days  
Heating Degree Days 4    
Growing Degree Days 10 (Base 50)    
Moisture  
Dew Point 53 °F    
Average Humidity 75    
Maximum Humidity 94    
Minimum Humidity 49    
Precipitation  
Precipitation 0.00 in - - ()
Sea Level Pressure  
Sea Level Pressure 30.12 in    
Wind  
Wind Speed 7 mph (North)    
Max Wind Speed 12 mph    
Max Gust Speed -    
Visibility 10 miles    
Events Rain    
Averages and records for this station are not official NWS values.
T = Trace of Precipitation, MM = Missing Value Source: NWS Daily Summary

Daily Weather History Graph

Daily Weather History Graph

Search for Another Location

Airport or City:

Trip Planner

Search our weather history database for the weather conditions in past years. The results will help you decide how hot, cold, wet, or windy it might be!

Date:

Astronomy

Feb. 07, 2012 Rise Set
Actual Time 6:34 AM CST 5:28 PM CST
Civil Twilight 6:09 AM CST 5:53 PM CST
Nautical Twilight 5:40 AM CST 6:21 PM CST
Astronomical Twilight 5:12 AM CST 6:49 PM CST
Moon 5:34 PM CST (2/7) 6:04 AM CST (2/7)
Length of Visible Light 11h 43m
Length of Day
10h 54m
Full, 100% of the Moon is Illuminated
Feb 7
Full
Feb 7
Full
Feb 14
Last Quarter
Feb 21
New
Feb 29
First Quarter

Hourly Weather History & Observations

Time (CST) Temp. Dew Point Humidity Pressure Visibility Wind Dir Wind Speed Gust Speed Precip Events Conditions
12:55 AM 53.8 °F 47.5 °F 79% 30.13 in 10.0 mi North 8.1 mph - N/A   Mostly Cloudy
1:55 AM 53.1 °F 46.8 °F 79% 30.12 in 10.0 mi North 8.1 mph - N/A   Clear
2:55 AM 52.9 °F 46.4 °F 79% 30.12 in 10.0 mi North 9.2 mph - N/A   Clear
3:55 AM 52.7 °F 46.4 °F 79% 30.11 in 10.0 mi North 6.9 mph - N/A   Mostly Cloudy
4:55 AM 52.3 °F 46.6 °F 81% 30.11 in 10.0 mi North 9.2 mph - N/A   Scattered Clouds
5:55 AM 51.4 °F 47.1 °F 85% 30.12 in 10.0 mi North 10.4 mph - N/A   Overcast
6:15 AM 51.8 °F 48.2 °F 88% 30.13 in 10.0 mi North 9.2 mph - N/A   Overcast
6:50 AM 51.8 °F 48.2 °F 88% 30.14 in 10.0 mi North 10.4 mph - N/A   Mostly Cloudy
6:55 AM 52.7 °F 49.3 °F 88% 30.14 in 10.0 mi North 9.2 mph - N/A   Mostly Cloudy
7:58 AM 53.6 °F 51.8 °F 94% 30.16 in 10.0 mi NNE 11.5 mph - N/A   Overcast
8:57 AM 55.4 °F 51.8 °F 88% 30.16 in 10.0 mi NNE 9.2 mph - N/A   Overcast
9:33 AM 57.2 °F 51.8 °F 82% 30.17 in 10.0 mi NNE 9.2 mph - N/A   Overcast
9:59 AM 59.0 °F 53.6 °F 82% 30.17 in 10.0 mi NNE 10.4 mph - N/A   Overcast
10:26 AM 60.8 °F 53.6 °F 77% 30.17 in 10.0 mi NE 6.9 mph - N/A   Mostly Cloudy
10:42 AM 62.6 °F 53.6 °F 72% 30.17 in 10.0 mi ENE 8.1 mph - N/A   Mostly Cloudy
10:55 AM 63.1 °F 54.3 °F 73% 30.16 in 10.0 mi NE 6.9 mph - 0.00 in   Light Drizzle
11:00 AM 62.6 °F 53.6 °F 72% 30.16 in 10.0 mi ENE 6.9 mph - N/A   Mostly Cloudy
11:17 AM 66.2 °F 55.4 °F 68% 30.15 in 10.0 mi NE 5.8 mph - N/A   Light Drizzle
11:29 AM 64.4 °F 55.4 °F 73% 30.14 in 10.0 mi North 8.1 mph - N/A   Partly Cloudy
11:35 AM 66.2 °F 55.4 °F 68% 30.14 in 10.0 mi NNE 6.9 mph - N/A Rain Light Rain
11:44 AM 66.2 °F 55.4 °F 68% 30.14 in 10.0 mi NNE 8.1 mph - N/A   Partly Cloudy
11:50 AM 66.2 °F 53.6 °F 64% 30.14 in 10.0 mi ENE 5.8 mph - N/A   Light Drizzle
11:55 AM 67.1 °F 54.3 °F 63% 30.14 in 10.0 mi NNE 5.8 mph - 0.00 in   Light Drizzle
12:30 PM 68.0 °F 53.6 °F 60% 30.11 in 10.0 mi North 5.8 mph - N/A   Partly Cloudy
12:33 PM 68.0 °F 53.6 °F 60% 30.11 in 10.0 mi Variable 5.8 mph - N/A Rain Light Rain
12:43 PM 68.0 °F 53.6 °F 60% 30.11 in 10.0 mi NE 4.6 mph - N/A   Clear
12:44 PM 68.0 °F 53.6 °F 60% 30.11 in 10.0 mi Variable 4.6 mph - N/A   Light Drizzle
12:45 PM 68.0 °F 53.6 °F 60% 30.11 in 10.0 mi Variable 3.5 mph - N/A   Clear
12:49 PM 69.8 °F 53.6 °F 56% 30.11 in 10.0 mi Variable 3.5 mph - N/A Rain Light Rain
12:55 PM 69.6 °F 51.4 °F 52% 30.10 in 10.0 mi Variable 5.8 mph - 0.00 in Rain Light Rain
1:01 PM 69.8 °F 50.0 °F 49% 30.10 in 10.0 mi Calm Calm - N/A   Scattered Clouds
1:13 PM 69.8 °F 51.8 °F 53% 30.09 in 10.0 mi North 9.2 mph - N/A   Light Drizzle
1:14 PM 69.8 °F 51.8 °F 53% 30.09 in 10.0 mi North 9.2 mph - N/A   Mostly Cloudy
1:15 PM 69.8 °F 51.8 °F 53% 30.09 in 10.0 mi North 8.1 mph - N/A   Light Drizzle
1:39 PM 69.8 °F 50.0 °F 49% 30.09 in 3.0 mi NNE 8.1 mph - N/A   Haze
1:40 PM 69.8 °F 50.0 °F 49% 30.09 in 4.0 mi NNE 6.9 mph - N/A Rain Light Rain
1:41 PM 69.8 °F 50.0 °F 49% 30.09 in 7.0 mi North 6.9 mph - N/A   Clear
1:55 PM 70.0 °F 50.7 °F 50% 30.09 in 10.0 mi Variable 4.6 mph - 0.00 in   Clear
2:43 PM 69.8 °F 55.4 °F 60% 30.09 in 10.0 mi SSW 6.9 mph - N/A Rain Light Rain
2:50 PM 69.8 °F 55.4 °F 60% 30.09 in 10.0 mi SSW 9.2 mph - N/A   Clear
2:55 PM 68.4 °F 57.0 °F 67% 30.08 in 10.0 mi South 10.4 mph - 0.00 in   Clear
3:55 PM 64.6 °F 57.2 °F 77% 30.10 in 10.0 mi SSW 8.1 mph - N/A   Clear
4:26 PM 64.4 °F 57.2 °F 77% 30.09 in 10.0 mi SW 6.9 mph - N/A   Light Drizzle
4:35 PM 64.4 °F 57.2 °F 77% 30.09 in 10.0 mi SW 4.6 mph - N/A   Clear
4:55 PM 63.1 °F 56.7 °F 79% 30.09 in 10.0 mi WSW 5.8 mph - 0.00 in   Clear
5:18 PM 62.6 °F 57.2 °F 82% 30.09 in 10.0 mi WSW 4.6 mph - N/A   Light Drizzle
5:28 PM 62.6 °F 57.2 °F 82% 30.09 in 8.0 mi WSW 3.5 mph - N/A   Clear
5:32 PM 60.8 °F 57.2 °F 88% 30.09 in 7.0 mi SW 3.5 mph - N/A   Light Drizzle
5:43 PM 60.8 °F 57.2 °F 88% 30.09 in 10.0 mi SW 4.6 mph - N/A   Clear
5:44 PM 60.8 °F 57.2 °F 88% 30.09 in 10.0 mi SW 3.5 mph - N/A Rain Light Rain
5:45 PM 60.8 °F 57.2 °F 88% - 10.0 mi SW 3.5 mph - N/A   Clear
5:46 PM 60.8 °F 57.2 °F 88% 30.09 in 9.0 mi SW 3.5 mph - N/A Rain Light Rain
5:55 PM 61.2 °F 56.7 °F 85% 30.10 in 4.0 mi Calm Calm - 0.00 in Rain Light Rain
6:13 PM 60.8 °F 57.2 °F 88% 30.10 in 10.0 mi WNW 3.5 mph - N/A   Clear
6:55 PM 61.0 °F 57.0 °F 87% 30.13 in 10.0 mi West 3.5 mph - 0.00 in   Clear
7:31 PM 60.8 °F 57.2 °F 88% 30.14 in 10.0 mi Calm Calm - N/A Rain Light Rain
7:41 PM 59.0 °F 55.4 °F 88% 30.14 in 10.0 mi Calm Calm - N/A   Clear
7:55 PM 58.8 °F 55.9 °F 90% 30.14 in 10.0 mi NW 3.5 mph - 0.00 in   Clear
8:55 PM 57.9 °F 55.0 °F 90% 30.16 in 9.0 mi Calm Calm - N/A   Clear
9:01 PM 57.2 °F 55.4 °F 94% 30.16 in 9.0 mi Calm Calm - N/A Rain Light Rain
9:08 PM 57.2 °F 55.4 °F 94% 30.17 in 10.0 mi Calm Calm - N/A   Clear
9:12 PM 57.2 °F 55.4 °F 94% 30.17 in 10.0 mi Calm Calm - N/A   Light Drizzle
9:21 PM 57.2 °F 55.4 °F 94% 30.17 in 10.0 mi NNW 3.5 mph - N/A   Clear
9:55 PM 53.8 °F 51.4 °F 92% 30.17 in 10.0 mi North 5.8 mph - 0.00 in   Clear
10:55 PM 52.2 °F 49.6 °F 91% 30.16 in 10.0 mi North 8.1 mph - N/A   Clear
11:55 PM 51.1 °F 47.1 °F 86% 30.16 in 10.0 mi North 8.1 mph - N/A   Clear